Regional Weather Roundup
Issued by NWS

Home | Current Version | Previous Version | Graphics & Text | Print | Product List | Glossary On
Versions: 1 2 3 4 5 6 7 8 9 10 11 12 13 14 15 16 17 18 19 20 21 22 23 24 25 26 27 28 29 30 31 32 33 34 35 36 37 38 39 40 41 42 43 44 45 46 47 48 49 50
000
ASUS43 KMKX 261321
RWRWI

WISCONSIN REGIONAL WEATHER ROUNDUP
NATIONAL WEATHER SERVICE MILWAUKEE/SULLIVAN WI
700 AM CST MON JAN 26 2015

NOTE: "FAIR" INDICATES FEW OR NO CLOUDS BELOW 12,000 FEET WITH NO
SIGNIFICANT WEATHER AND/OR OBSTRUCTIONS TO VISIBILITY.

WIZ001-002-006>008-014>016-023>028-261400-
NORTHWEST WISCONSIN

CITY           SKY/WX    TMP DP  RH WIND       PRES   REMARKS
SUPERIOR ARPT  CLOUDY    22  21  95 S5        29.69F FOG     WCI  16
ASHLAND        LGT SNOW  20  16  84 S7        29.72F FOG     WCI  11
HAYWARD        LGT SNOW  18  13  80 S9        29.72F VSB 3/4 WCI   7
SIREN          CLOUDY    23  20  87 S8        29.70F WCI  14
CUMBERLAND     CLOUDY    21  19  93 SE9       29.72S WCI  11
RICE LAKE      FLURRIES  20  18  90 SE8       29.76S WCI  10
CHETEK         LGT SNOW  19  17  90 SE9       29.76S WCI   9
LADYSMITH      LGT SNOW  18  15  86 SE9       29.78F WCI   7
EAU CLAIRE     FLURRIES  20  17  88 S9        29.77F WCI   9
MENOMONIE      LGT SNOW  22  20  91 SE7       29.78F WCI  14
NEW RICHMOND   CLOUDY    25  24  96 S10       29.73F WCI  14
OSCEOLA        CLOUDY    26  26 100 S9        29.75S WCI  16
$$

WIZ003>005-009-010-017-018-261400-
NORTH CENTRAL WISCONSIN

CITY           SKY/WX    TMP DP  RH WIND       PRES   REMARKS
MANITOWISH WTR CLOUDY    13   7  78 S9        29.74F WCI   1
ARBOR VITAE    CLOUDY    17   8  69 S9        29.76F WCI   5
WOODRUFF       CLOUDY    17   8  69 S9        29.76F WCI   5
RHINELANDER    CLOUDY    14   5  67 S8        29.79F WCI   3
EAGLE RIVER    PTCLDY    12   7  77 S6        29.78F WCI   3
LAND O LAKES   CLOUDY    13   9  83 S7        29.77F WCI   3
PHILLIPS       LGT SNOW  15  11  85 SE9       29.75F WCI   3
TOMAHAWK       CLOUDY    14   7  75 CALM      29.79F
MEDFORD        LGT SNOW  14  10  84 SE10      29.77F WCI   2
MERRILL        CLOUDY    15   7  72 S5        29.82F WCI   7
$$

WIZ029-030-035-036-043>047-261400-
CENTRAL WISCONSIN

CITY           SKY/WX    TMP DP  RH WIND       PRES   REMARKS
WAUSAU         CLOUDY    14   7  73 SE6       29.82F WCI   5
MOSINEE        CLOUDY    12   9  85 SE6       29.85F WCI   3
MARSHFIELD     LGT SNOW  17  11  77 S12       29.81F WCI   4
STEVENS POINT  CLOUDY    13   8  77 SE5       29.86F WCI   6
WAUPACA        CLOUDY    17  11  78 SE3       29.92F
WAUTOMA        CLOUDY    14  11  88 SE3       29.92F
WISC RAPIDS    CLOUDY    16   8  71 S6        29.88F WCI   7
CAMP DOUGLAS   LGT SNOW  19  18  93 SE8       29.87F FOG     WCI   9
$$

WIZ011>013-019>022-031-037>040-048>050-261400-
NORTHEAST WISCONSIN

CITY           SKY/WX    TMP DP  RH WIND       PRES   REMARKS
ANTIGO         CLOUDY    12   6  76 S9        29.83F WCI   0
SHAWANO        CLOUDY    15  10  81 CALM      29.92F
OCONTO         MOCLDY    10   9  93 CALM      29.94F
STURGEON BAY   CLOUDY    12   9  85 CALM      29.95F
GREEN BAY      PTCLDY    13   9  84 CALM      29.94F
MANITOWOC      CLOUDY    16  13  88 CALM      29.96S
APPLETON       CLOUDY    16   9  73 VRB3      29.93F
CLINTONVILLE   CLOUDY    14  10  85 SE3       29.91F
OSHKOSH        CLOUDY    16   9  74 CALM      29.93F
$$

WIZ032>034-041-042-053>061-261400-
SOUTHWEST WISCONSIN

CITY           SKY/WX    TMP DP  RH WIND       PRES   REMARKS
LA CROSSE      LGT SNOW  22  19  89 S7        29.86S FOG     WCI  13
SPARTA         LGT SNOW  19  16  88 SE6       29.87F WCI  11
VIROQUA        CLOUDY    19  16  88 SE9       29.83F WCI   8
BOSCOBEL       LGT SNOW  21  14  74 CALM      29.90F
PRAIRIE DU CHI FLURRIES  22  15  76 SE3       29.89F
PLATTEVILLE    CLOUDY    19  14  83 SE9       29.90F WCI   7
$$

WIZ056-057-062-063-064-067-068-261400-
SOUTH CENTRAL WISCONSIN

CITY           SKY/WX    TMP DP  RH WIND       PRES   REMARKS
REEDSBURG      CLOUDY    18  13  78 S6        29.90S WCI  10
BARABOO/DELLS  MOCLDY    18  13  79 S5        29.90S WCI  11
LONE ROCK      CLOUDY    18  13  80 E3        29.92F
MINERAL POINT  CLOUDY    19  14  79 S7        29.89F WCI  10
MADISON        MOCLDY    17  11  77 S5        29.93F WCI  10
MIDDLETON      CLOUDY    19  12  73 CALM      29.93S
WATERTOWN      CLOUDY    14  10  86 CALM      29.93F
MONROE         CLOUDY    16  14  93 S6        29.91F WCI   7
JANESVILLE     CLOUDY    16  12  86 CALM      29.95R
$$

WIZ051-052-058>065-066-070>072-261400-
SOUTHEAST WISCONSIN

CITY           SKY/WX    TMP DP  RH WIND       PRES   REMARKS
MILWAUKEE      MOCLDY    18  11  74 CALM      29.95S
WAUKESHA       PTCLDY    10   9  92 CALM      29.95S
MILWAUKEE/TIMM MOCLDY    16  10  79 CALM      29.96S
RACINE         CLOUDY    17  12  80 W3        29.96F
BURLINGTON     PTCLDY    11   8  90 CALM      29.95R
KENOSHA        CLOUDY    14  11  87 CALM      29.95S
FOND DU LAC    MOCLDY    14   9  80 CALM      29.93F
SHEBOYGAN      CLOUDY    15  11  83 CALM      29.94F
WEST BEND      MOCLDY    14  10  85 CALM      29.93F
JUNEAU         CLOUDY    14  10  82 CALM      29.94S
$$

LSZ147-162-261400-
LAKE SUPERIOR

STATION/POSITION TIME  TEMP    WIND        PRES    WAVE
                       AIR SEA DIR/SP/G            HT/PER
                 (UTC) (F)     (DEG/KT/KT) (MB)    (FT/S)
DEVILS ISLAND    1300   21     160/ 11/ 18 1007.5F
PORT WING        1240   21     170/ 10/ 17 1006.1F
SAXON HARBOR     1200   20     180/  4/ 13 1007.8F
$$

LMZ867-665-643>646-261400-
LAKE MICHIGAN

STATION/POSITION TIME  TEMP    WIND        PRES    WAVE
                       AIR SEA DIR/SP/G            HT/PER
                 (UTC) (F)     (DEG/KT/KT) (MB)    (FT/S)
NORTHPORT PIER   1215   14      CALM  /  1 1014.6F
SISTER BAY       1213   12        CALM       N/A
KEWAUNEE LAKESHO 1200   13     280/  1/  3 1013.6F
SHEBOYGAN LAKESH 1300   20     250/  4/  4 1015.4F
PORT WASHINGTON  1240   18        CALM     1015.2F
MILWAUKEE LAKESH 1300   21     300/  3/  4   N/A
KENOSHA   LAKESH 1300   18     280/  5/  7 1014.6S
$$

TC  - TEMPERATURE IN CELSIUS
VSB - VISIBILITY IN STATUTE MILES
WCI - WIND CHILL INDEX
HX  - HEAT INDEX



USA.gov is the U.S. government's official web portal to all federal, state and local government web resources and services.